Location: *
(46.4000°N, 12.6667°E)
Time: 04:02:38
(UTC+00:00)

Envisat - Pass Details

Date: 10 December 2021
Orbit: 764 x 766 km, 98.2° (Epoch: 16 January)

Event Time Altitude Azimuth Distance (km) Brightness Sun altitude
Rises 03:28:16 0° 21° (NNE) 3,243 6.5 -32.3°
Reaches altitude 10° 03:30:48 10° 31° (NNE) 2,312 5.8 -31.9°
Maximum altitude 03:35:24 33° 96° (E) 1,261 4.6 -31.1°
Drops below altitude 10° 03:39:57 10° 160° (SSE) 2,295 5.7 -30.3°
Sets 03:42:27 0° 170° (S) 3,216 6.4 -29.9°
